Lumberton, NC

12:54 AM EST on February 25, 2017 (GMT -0500)
Lumberton Municipal

Weather History for KLBT - June, 2013

Change the Weather History Date:

Tuesday, June 4, 2013

  Actual Average Record
Temperature  
Mean Temperature 77 °F 75 °F  
Max Temperature 87 °F 86 °F 97 °F (2008)
Min Temperature 66 °F 64 °F 61 °F (2011)
Degree Days  
Heating Degree Days 0 0  
Month to date heating degree days 0 0  
Since 1 June heating degree days 0 0  
Since 1 July heating degree days 2800 2761  
Cooling Degree Days 12 10  
Month to date cooling degree days 37 40  
Year to date cooling degree days 229 290  
Since 1 June cooling degree days 37 40  
Growing Degree Days 26 (Base 50)    
Moisture  
Dew Point 68 °F    
Average Humidity 76    
Maximum Humidity 100    
Minimum Humidity 51    
Precipitation  
Precipitation 0.00 in 0.17 in 2.20 in (2004)
Month to date precipitation 1.90 0.68  
Year to date precipitation 16.39 15.75  
Sea Level Pressure  
Sea Level Pressure 29.98 in    
Wind  
Wind Speed 5 mph (ENE)    
Max Wind Speed 13 mph    
Max Gust Speed -    
Visibility 6 miles    
Events Fog    
T = Trace of Precipitation, MM = Missing Value Source: NWS Daily Summary

Daily Weather History Graph

Daily Weather History Graph

Search for Another Location

Airport or City:

Trip Planner

Search our weather history database for the weather conditions in past years. The results will help you decide how hot, cold, wet, or windy it might be!

Date:

Astronomy

Jun. 04, 2013 Rise Set
Actual Time 6:03 AM EDT 8:25 PM EDT
Civil Twilight 5:34 AM EDT 8:55 PM EDT
Nautical Twilight 4:58 AM EDT 9:30 PM EDT
Astronomical Twilight 4:19 AM EDT 10:10 PM EDT
Moon 3:24 AM EDT (6/4) 5:00 PM EDT (6/4)
Length of Visible Light 15h 20m
Length of Day
14h 22m
Waning Crescent, 14% of the Moon is Illuminated
Jun 4
Waning Crescent
Jun 8
New
Jun 16
First Quarter
Jun 23
Full
Jun 30
Last Quarter

Hourly Weather History & Observations

Time (EDT) Temp. Heat Index Dew Point Humidity Pressure Visibility Wind Dir Wind Speed Gust Speed Precip Events Conditions
12:21 AM 68.0 °F - 66.2 °F 94% 29.95 in 2.0 mi Calm Calm - N/A   Clear
12:23 AM 66.2 °F - 66.2 °F 100% 29.95 in 1.5 mi Calm Calm - N/A   Clear
12:42 AM 66.2 °F - 66.2 °F 100% 29.94 in 0.8 mi Calm Calm - N/A   Clear
12:49 AM 66.2 °F - 66.2 °F 100% 29.94 in 0.5 mi Calm Calm - N/A Fog Fog
12:54 AM 66.9 °F - 66.0 °F 97% 29.94 in 0.5 mi Calm Calm - N/A Fog Fog
1:12 AM 66.2 °F - 66.2 °F 100% 29.94 in 1.2 mi South 3.5 mph - N/A   Partly Cloudy
1:15 AM 66.2 °F - 66.2 °F 100% 29.94 in 2.5 mi South 3.5 mph - N/A   Partly Cloudy
1:22 AM 68.0 °F - 66.2 °F 94% 29.94 in 5.0 mi Calm Calm - N/A   Clear
1:54 AM 66.0 °F - 66.0 °F 100% 29.94 in 5.0 mi Calm Calm - N/A   Clear
2:54 AM 66.9 °F - 66.0 °F 97% 29.93 in 6.0 mi North 5.8 mph - N/A   Clear
3:15 AM 69.8 °F - 68.0 °F 94% 29.93 in 4.0 mi North 4.6 mph - N/A   Scattered Clouds
3:22 AM 69.8 °F - 68.0 °F 94% 29.93 in 1.8 mi Calm Calm - N/A   Mostly Cloudy
3:27 AM 69.8 °F - 68.0 °F 94% 29.93 in 1.0 mi North 4.6 mph - N/A   Mostly Cloudy
3:36 AM 69.8 °F - 69.8 °F 100% 29.93 in 0.5 mi North 3.5 mph - N/A Fog Fog
3:54 AM 69.1 °F - 69.1 °F 100% 29.93 in 0.2 mi North 3.5 mph - N/A Fog Fog
4:54 AM 68.0 °F - 66.9 °F 96% 29.93 in 0.2 mi Calm Calm - N/A Fog Fog
5:54 AM 69.1 °F - 68.0 °F 96% 29.95 in 0.2 mi NNE 3.5 mph - N/A Fog Fog
6:43 AM 68.0 °F - 68.0 °F 100% 29.96 in 1.0 mi Calm Calm - N/A   Mostly Cloudy
6:45 AM 69.8 °F - 68.0 °F 94% 29.96 in 1.8 mi Calm Calm - N/A   Mostly Cloudy
6:49 AM 69.8 °F - 68.0 °F 94% 29.97 in 3.0 mi ENE 3.5 mph - N/A   Scattered Clouds
6:54 AM 69.1 °F - 68.0 °F 96% 29.97 in 4.0 mi Calm Calm - N/A   Partly Cloudy
7:54 AM 70.0 °F - 68.0 °F 93% 29.98 in 10.0 mi NNE 8.1 mph - N/A   Clear
8:54 AM 75.9 °F - 68.0 °F 76% 29.99 in 10.0 mi North 3.5 mph - N/A   Clear
9:54 AM 79.0 °F - 68.0 °F 69% 30.01 in 10.0 mi NE 6.9 mph - N/A   Clear
10:49 AM 80.6 °F 83.9 °F 69.8 °F 70% 30.02 in 10.0 mi ENE 11.5 mph - N/A   Mostly Cloudy
10:54 AM 81.0 °F 84.1 °F 69.1 °F 67% 30.02 in 10.0 mi ENE 9.2 mph - N/A   Mostly Cloudy
11:01 AM 80.6 °F 83.9 °F 69.8 °F 70% 30.02 in 10.0 mi ENE 6.9 mph - N/A   Scattered Clouds
11:54 AM 81.0 °F 83.8 °F 68.0 °F 65% 30.03 in 10.0 mi East 9.2 mph - N/A   Scattered Clouds
12:54 PM 82.0 °F 85.5 °F 69.1 °F 65% 30.03 in 10.0 mi ENE 6.9 mph - N/A   Partly Cloudy
1:36 PM 82.4 °F 85.4 °F 68.0 °F 62% 30.03 in 10.0 mi North - - N/A   Mostly Cloudy
1:50 PM 82.4 °F 85.4 °F 68.0 °F 62% 30.02 in 10.0 mi NE 8.1 mph - N/A   Mostly Cloudy
1:54 PM 82.9 °F 85.8 °F 68.0 °F 60% 30.02 in 10.0 mi East 5.8 mph - N/A   Mostly Cloudy
2:54 PM 84.9 °F 87.6 °F 66.9 °F 55% 30.00 in 10.0 mi ESE 6.9 mph - N/A   Scattered Clouds
3:54 PM 84.9 °F 87.6 °F 66.9 °F 55% 29.99 in 10.0 mi Variable 6.9 mph - N/A   Clear
4:54 PM 86.0 °F 88.2 °F 66.0 °F 51% 29.99 in 10.0 mi ENE 5.8 mph - N/A   Mostly Cloudy
5:54 PM 86.0 °F 88.2 °F 66.0 °F 51% 29.99 in 10.0 mi East 4.6 mph - N/A   Mostly Cloudy
6:54 PM 84.9 °F 88.2 °F 68.0 °F 57% 29.99 in 10.0 mi East 8.1 mph - N/A   Mostly Cloudy
7:54 PM 82.0 °F 84.9 °F 68.0 °F 62% 30.01 in 10.0 mi ENE 5.8 mph - N/A   Overcast
8:54 PM 79.0 °F - 68.0 °F 69% 30.02 in 9.0 mi NE 4.6 mph - N/A   Overcast
9:54 PM 77.0 °F - 70.0 °F 79% 30.05 in 9.0 mi ESE 10.4 mph - N/A   Mostly Cloudy
10:54 PM 73.9 °F - 70.0 °F 87% 30.07 in 10.0 mi SSE 6.9 mph - N/A   Overcast
11:46 PM 73.4 °F - 71.6 °F 94% 30.08 in 6.0 mi ESE 3.5 mph - N/A   Mostly Cloudy
11:54 PM 73.0 °F - 71.1 °F 93% 30.08 in 6.0 mi Calm Calm - N/A   Mostly Cloudy